Location: Newark
(43.6583°N, 1.6617°E)
Time: 15:58:40
(UTC+00:00)

Transit 4A - Pass Details

Date: 29 August 2019
Orbit: 865 x 980 km, 66.8° (Epoch: 15 September)

Event Time Altitude Azimuth Distance (km) Brightness Sun altitude
Rises 17:08:59 0° 228° (SW) 3,666 11.8 14.6°
Reaches altitude 10° 17:11:38 10° 234° (SW) 2,725 11.4 14.1°
Maximum altitude 17:17:49 49° 308° (NW) 1,244 9.4 13.0°
Drops below altitude 10° 17:23:59 10° 23° (NNE) 2,719 10.2 11.9°
Sets 17:26:38 0° 29° (NNE) 3,657 10.7 11.4°
